Location: Arbon
(43.0005°N, 0.7472°E)
Time: 22:28:23
(UTC+00:00)

Courier 1B Rocket - Pass Details

Date: 29 November 2020
Orbit: 920 x 1202 km, 28.2° (Epoch: 23 January)

Event Time Altitude Azimuth Distance (km) Brightness Sun altitude
Rises 05:42:02 0° 229° (SW) 4,087 7.9 -15.1°
Reaches altitude 10° 05:45:35 10° 215° (SW) 3,126 7.4 -14.5°
Maximum altitude 05:51:17 22° 168° (SSE) 2,316 7.3 -13.5°
Drops below altitude 10° 05:56:53 10° 121° (ESE) 3,067 9.0 -12.5°
Sets 06:00:19 0° 107° (ESE) 3,991 10.4 -11.9°
